STARLINK-1966 (47567 NORAD) Tracking and Keplerian Element Data

This shows tracking and keplerian element data for the satellite.

Feedback or suggestion? Click here.




ElementValue
Catalog47567
NameSTARLINK-1966
Epoch Orbit1060
Epoch Day99.91667824
Epoch Year2021
RAAN178.6639
Inclination53.0527
Eccentricity0.0001103
Argument of Perigee94.5713
Mean Anonmoly316.3254
Mean Motion15.06415591
Decay Rate-0.00029499
L11 47567U 21009V 21099.91667824 -.00029499 00000-0 -19689-2 0 9995
L22 47567 53.0527 178.6639 0001103 94.5713 316.3254 15.06415591 10605

Live tracking and technical data element details for STARLINK-1966 (NORAD 47567). STARLINK-1966 can be tracked NOW for your location showing map with azimuth and elevation plus other details from your city location.

Track the satellite on the map from your city or location and see movement details for azimuth, elevation, latitude, longitude, range, height, and movement on the map or in text.







IsCatalogInMostPopularTable: catalog: 47567, numindb: 19
Update: records affected: 1



GetName: 47567 STARLINK-1966

Hit Count: updated at: Sat, 10 Apr 2021 19:16:02 GMT